Steamboat Springs, CO

9:18 AM MDT on September 26, 2017 (GMT -0600)
Steamboat Springs-Adams

Weather History for KSBS - November, 2013

Change the Weather History Date:

Tuesday, November 19, 2013

  Actual Average Record
Temperature  
Mean Temperature 26 °F -  
Max Temperature 36 °F 39 °F 60 °F (1949)
Min Temperature 15 °F 15 °F -12 °F (1969)
Degree Days  
Heating Degree Days 40    
Moisture  
Dew Point 25 °F    
Average Humidity 92    
Maximum Humidity 100    
Minimum Humidity 65    
Precipitation  
Precipitation 0.00 in - - ()
Sea Level Pressure  
Sea Level Pressure 29.99 in    
Wind  
Wind Speed 0 mph (ESE)    
Max Wind Speed 6 mph    
Max Gust Speed -    
Visibility 7 miles    
Events      
Averages and records for this station are not official NWS values.
T = Trace of Precipitation, MM = Missing Value Source: NWS Daily Summary

Daily Weather History Graph

Daily Weather History Graph

Search for Another Location

Airport or City:

Trip Planner

Search our weather history database for the weather conditions in past years. The results will help you decide how hot, cold, wet, or windy it might be!

Date:

Astronomy

Nov. 19, 2013 Rise Set
Actual Time 6:58 AM MST 4:46 PM MST
Civil Twilight 6:29 AM MST 5:16 PM MST
Nautical Twilight 5:55 AM MST 5:49 PM MST
Astronomical Twilight 5:23 AM MST 6:21 PM MST
Moon 6:40 PM MST (11/19) 8:40 AM MST (11/19)
Length of Visible Light 10h 47m
Length of Day
9h 47m
Waning Gibbous, 96% of the Moon is Illuminated
Nov 19
Waning Gibbous
Nov 25
Last Quarter
Dec 2
New
Dec 9
First Quarter
Dec 17
Full

Hourly Weather History & Observations

Time (MST) Temp. Windchill Dew Point Humidity Pressure Visibility Wind Dir Wind Speed Gust Speed Precip Events Conditions
12:14 AM 20.7 °F - 19.0 °F 93% 30.13 in 10.0 mi Calm Calm - N/A   Clear
12:34 AM 22.6 °F - 21.7 °F 96% 30.13 in 10.0 mi Calm Calm - N/A   Clear
12:54 AM 21.4 °F - 20.5 °F 96% 30.12 in 10.0 mi Calm Calm - N/A   Clear
1:14 AM 22.6 °F - 21.6 °F 96% 30.11 in 10.0 mi Calm Calm - N/A   Clear
1:34 AM 19.4 °F - 18.5 °F 96% 30.11 in 10.0 mi Calm Calm - N/A   Clear
1:54 AM 19.4 °F - 18.7 °F 97% 30.11 in 10.0 mi Calm Calm - N/A   Clear
2:14 AM 19.4 °F - 18.3 °F 96% 30.11 in 10.0 mi Calm Calm - N/A   Clear
2:34 AM 19.4 °F - 18.5 °F 96% 30.10 in 10.0 mi Calm Calm - N/A   Clear
2:54 AM 17.8 °F - 16.5 °F 95% 30.09 in 10.0 mi Calm Calm - N/A   Clear
3:14 AM 19.0 °F - 18.3 °F 97% 30.08 in 10.0 mi Calm Calm - N/A   Clear
3:34 AM 18.1 °F - 16.9 °F 95% 30.08 in 10.0 mi Calm Calm - N/A   Clear
3:54 AM 16.9 °F - 15.4 °F 94% 30.07 in 10.0 mi Calm Calm - N/A   Clear
4:14 AM 18.1 °F - 17.2 °F 96% 30.06 in 10.0 mi Calm Calm - N/A   Clear
4:34 AM 17.6 °F - 16.7 °F 96% 30.06 in 10.0 mi Calm Calm - N/A   Clear
4:54 AM 16.7 °F - 16.0 °F 97% 30.06 in 10.0 mi Calm Calm - N/A   Clear
5:14 AM 17.8 °F - 17.1 °F 97% 30.06 in 10.0 mi Calm Calm - N/A   Clear
5:34 AM 17.6 °F - 16.5 °F 96% 30.05 in 10.0 mi Calm Calm - N/A   Clear
5:54 AM 16.7 °F - 15.6 °F 96% 30.05 in 10.0 mi Calm Calm - N/A   Clear
6:14 AM 16.9 °F - 16.0 °F 96% 30.04 in 10.0 mi Calm Calm - N/A   Clear
6:34 AM 16.5 °F - 15.3 °F 95% 30.04 in 10.0 mi Calm Calm - N/A   Clear
6:54 AM 16.2 °F - 15.1 °F 95% 30.03 in 10.0 mi Calm Calm - N/A   Clear
7:14 AM 15.8 °F - 14.4 °F 94% 30.04 in 10.0 mi Calm Calm - N/A   Clear
7:34 AM 15.6 °F - 14.2 °F 94% 30.04 in 10.0 mi Calm Calm - N/A   Clear
7:54 AM 15.6 °F - 13.5 °F 91% 30.03 in 10.0 mi Calm Calm - N/A   Clear
8:14 AM 16.0 °F - 14.4 °F 93% 30.03 in 10.0 mi Calm Calm - N/A   Clear
8:34 AM 19.8 °F - 18.5 °F 95% 30.03 in 10.0 mi Calm Calm - N/A   Clear
8:54 AM 22.5 °F - 20.7 °F 93% 30.02 in 10.0 mi Calm Calm - N/A   Scattered Clouds
9:14 AM 22.8 °F - 20.8 °F 92% 30.02 in 10.0 mi Calm Calm - N/A   Mostly Cloudy
9:34 AM 24.3 °F - 21.2 °F 88% 30.00 in 10.0 mi Calm Calm - N/A   Overcast
9:54 AM 26.2 °F - 21.0 °F 81% 30.00 in 10.0 mi Calm Calm - N/A   Mostly Cloudy
10:14 AM 29.1 °F - 21.9 °F 74% 30.00 in 10.0 mi Calm Calm - N/A   Mostly Cloudy
10:34 AM 28.8 °F - 21.0 °F 73% 29.99 in 10.0 mi Calm Calm - N/A   Overcast
10:54 AM 29.8 °F - 22.3 °F 73% 29.99 in 10.0 mi Calm Calm - N/A   Mostly Cloudy
11:14 AM 31.3 °F - 23.7 °F 74% 29.97 in 10.0 mi Calm Calm - N/A   Overcast
11:34 AM 31.8 °F - 21.9 °F 67% 29.96 in 10.0 mi Calm Calm - N/A   Overcast
11:54 AM 32.9 °F - 23.0 °F 67% 29.95 in 10.0 mi Calm Calm - N/A   Overcast
12:14 PM 32.4 °F - 23.9 °F 71% 29.95 in 10.0 mi Calm Calm - N/A   Overcast
12:34 PM 33.8 °F - 23.0 °F 65% 29.94 in 10.0 mi Calm Calm - N/A   Overcast
12:54 PM 34.5 °F - 24.4 °F 67% 29.94 in 10.0 mi Calm Calm - N/A   Overcast
1:14 PM 33.6 °F - 23.5 °F 67% 29.95 in 10.0 mi Calm Calm - N/A   Overcast
1:34 PM 35.2 °F - 25.0 °F 66% 29.95 in 7.0 mi Calm Calm - N/A   Overcast
1:54 PM 36.0 °F - 27.7 °F 72% 29.95 in 10.0 mi Calm Calm - N/A   Overcast
2:14 PM 34.7 °F - 29.5 °F 81% 29.94 in 5.0 mi Calm Calm - N/A   Overcast
2:34 PM 34.3 °F 29.2 °F 32.2 °F 92% 29.94 in 4.0 mi ENE 5.8 mph - N/A   Overcast
2:54 PM 34.3 °F 29.2 °F 32.9 °F 94% 29.93 in 10.0 mi ESE 5.8 mph - N/A   Overcast
3:14 PM 34.5 °F 31.6 °F 33.1 °F 94% 29.92 in 7.0 mi SE 3.5 mph - N/A   Overcast
3:34 PM 34.9 °F - 33.4 °F 94% 29.92 in 7.0 mi Calm Calm - N/A   Overcast
3:54 PM 35.1 °F 32.2 °F 33.8 °F 95% 29.92 in 7.0 mi ESE 3.5 mph - N/A   Overcast
4:14 PM 34.7 °F - 33.4 °F 95% 29.92 in 10.0 mi Calm Calm - N/A   Overcast
4:34 PM 34.3 °F - 33.6 °F 97% 29.91 in 7.0 mi Calm Calm - N/A   Overcast
4:54 PM 34.3 °F - 33.4 °F 97% 29.91 in 5.0 mi Calm Calm - N/A   Overcast
5:14 PM 34.2 °F - 33.8 °F 99% 29.92 in 5.0 mi Calm Calm - N/A   Overcast
5:34 PM 33.8 °F - 33.6 °F 99% 29.92 in 4.0 mi Calm Calm - N/A   Overcast
5:54 PM 33.1 °F - 32.9 °F 99% 29.92 in 3.0 mi Calm Calm - N/A   Overcast
6:14 PM 32.7 °F - 32.5 °F 99% 29.93 in 0.5 mi Calm Calm - N/A   Overcast
6:34 PM 32.2 °F - 32.0 °F 99% 29.93 in 0.5 mi Calm Calm - N/A   Overcast
6:54 PM 32.0 °F - 32.0 °F 100% 29.94 in 1.2 mi Calm Calm - N/A   Overcast
7:14 PM 32.2 °F - 32.2 °F 100% 29.94 in 1.2 mi Calm Calm - N/A   Overcast
7:34 PM 32.2 °F - 32.2 °F 100% 29.94 in 1.5 mi Calm Calm - N/A   Overcast
7:54 PM 32.2 °F - 32.2 °F 100% 29.94 in 1.8 mi Calm Calm - N/A   Overcast
8:14 PM 32.2 °F - 32.2 °F 100% 29.94 in 1.5 mi Calm Calm - N/A   Overcast
8:34 PM 32.0 °F - 32.0 °F 100% 29.94 in 0.5 mi Calm Calm - N/A   Overcast
8:54 PM 32.5 °F - 32.5 °F 100% 29.94 in 2.5 mi Calm Calm - N/A   Overcast
9:14 PM 32.4 °F - 32.4 °F 100% 29.94 in 2.0 mi Calm Calm - N/A   Overcast
9:34 PM 32.4 °F - 32.4 °F 100% 29.94 in 1.2 mi Calm Calm - N/A   Overcast
9:54 PM 32.2 °F - 32.2 °F 100% 29.94 in 1.2 mi Calm Calm - N/A   Overcast
10:14 PM 32.4 °F - 32.4 °F 100% 29.94 in 1.5 mi Calm Calm - N/A   Overcast
10:34 PM 32.0 °F - 32.0 °F 100% 29.94 in 0.5 mi Calm Calm - N/A   Overcast
10:54 PM 32.0 °F - 32.0 °F 100% 29.94 in 1.2 mi Calm Calm - N/A   Overcast
11:14 PM 32.2 °F - 32.2 °F 100% 29.94 in 3.0 mi Calm Calm - N/A   Overcast
11:34 PM 32.0 °F - 32.0 °F 100% 29.95 in 5.0 mi Calm Calm - N/A   Overcast
11:54 PM 32.2 °F - 32.2 °F 100% 29.96 in 7.0 mi Calm Calm - N/A   Overcast